Location: Sebastopol
(38.4021°N, 122.8239°W)
Time: 15:37:59
(UTC+00:00)

Cosmos 2082 Rocket - Pass Details

Date: 29 October 2020
Orbit: 833 x 854 km, 71.0° (Epoch: 01 December)

Event Time Altitude Azimuth Distance (km) Brightness Sun altitude
Exits shadow 13:51:32 10° 263° (W) 2,453 4.0 -9.1°
Reaches altitude 10° 13:51:35 10° 264° (W) 2,439 4.0 -9.1°
Maximum altitude 13:55:22 18° 307° (NW) 1,923 3.5 -8.4°
Drops below altitude 10° 13:59:11 10° 350° (N) 2,451 4.4 -7.7°
Sets 14:02:27 0° 9° (N) 3,392 5.3 -7.0°
